Date,TemperatureHighF,TemperatureAvgF,TemperatureLowF,DewpointHighF,DewpointAvgF,DewpointLowF,HumidityHigh,HumidityAvg,HumidityLow,PressureMaxIn,PressureMinIn,WindSpeedMaxMPH,WindSpeedAvgMPH,GustSpeedMaxMPH,PrecipitationSumIn
2013-1-1,44,39,35,43,36,30,95,88,80,30.37,30.09,3,0,11,0.01
2013-1-2,39,33,26,31,28,25,94,84,73,30.43,30.34,2,0,7,0.01
2013-1-3,48,37,26,33,29,25,96,76,49,30.56,30.41,3,0,8,0.00
2013-1-4,49,42,37,34,32,30,83,67,51,30.60,30.43,1,0,4,0.00
2013-1-5,51,42,33,40,36,31,94,80,63,30.43,30.27,3,1,10,0.00
2013-1-6,54,39,30,34,30,27,97,74,38,30.48,30.35,2,0,8,0.00
2013-1-7,54,40,25,35,31,23,95,73,47,30.41,30.17,4,0,8,0.00
2013-1-8,47,46,45,46,41,34,96,83,63,30.18,30.03,3,0,7,1.21
2013-1-9,55,52,47,54,51,46,97,96,96,30.19,29.96,7,2,20,2.40
2013-1-10,58,54,46,55,50,44,97,87,68,30.06,29.94,7,2,15,0.19
2013-1-11,69,58,44,61,50,42,94,75,45,30.00,29.80,5,1,17,0.01
2013-1-12,65,54,35,64,51,31,96,91,83,29.99,29.70,5,1,16,0.40
2013-1-13,41,34,29,31,25,20,86,69,54,30.36,29.99,4,1,16,0.19
2013-1-14,43,34,26,27,22,18,72,63,49,30.44,30.30,3,1,10,0.00
2013-1-15,36,34,29,30,26,21,91,74,62,30.33,30.24,3,0,10,0.04
2013-1-16,47,34,23,30,23,20,92,68,38,30.39,30.25,2,0,10,0.01
2013-1-17,58,42,29,38,32,26,89,70,40,30.57,30.32,3,0,11,0.00
2013-1-18,60,44,28,37,33,27,96,69,40,30.58,30.33,4,1,14,0.00
2013-1-19,64,50,38,47,41,34,94,72,50,30.33,30.19,6,1,18,0.00
2013-1-20,67,50,36,48,42,35,97,80,45,30.27,30.12,3,0,8,0.00
2013-1-21,57,45,37,42,34,25,96,67,47,30.37,30.17,2,0,8,0.00
2013-1-22,64,48,35,48,37,25,89,66,55,30.38,30.23,3,0,8,0.00
2013-1-23,72,61,49,57,52,46,89,75,58,30.31,30.16,5,2,12,0.00
2013-1-24,76,62,50,60,55,49,96,78,57,30.22,30.05,3,1,12,0.00
2013-1-25,54,49,45,51,44,38,96,85,74,30.25,30.05,2,0,7,0.00
2013-1-26,52,47,44,49,45,39,96,91,76,30.28,30.15,3,0,8,0.02
2013-1-27,73,60,47,63,56,46,97,87,65,30.15,29.96,6,1,17,0.01
2013-1-28,76,71,67,66,64,63,89,80,66,30.02,29.84,7,3,23,0.01
2013-1-29,76,66,52,67,60,36,94,81,50,29.85,29.45,7,3,24,0.52
2013-1-30,54,46,33,39,30,22,85,56,36,30.19,29.70,5,2,23,0.05
2013-1-31,67,54,31,31,28,24,85,39,21,30.37,30.14,6,2,17,0.00
2013-2-1,59,43,29,37,28,17,82,56,39,30.46,30.22,4,1,11,0.00
2013-2-2,66,54,41,45,39,34,92,61,31,30.37,30.19,3,1,11,0.00
2013-2-3,68,52,34,42,33,30,96,57,25,30.37,30.03,3,0,9,0.00
2013-2-4,70,61,55,56,49,31,90,66,35,30.03,29.82,7,2,17,0.00
2013-2-5,63,58,55,59,56,54,96,93,86,30.04,29.91,2,0,7,0.00
2013-2-6,74,61,54,62,57,53,97,87,50,30.05,29.88,5,1,13,0.01
2013-2-7,78,63,55,60,54,44,94,76,32,30.14,29.82,5,2,16,0.01
2013-2-8,62,52,41,46,35,26,82,57,26,30.30,30.13,4,1,10,0.00
2013-2-9,56,49,46,55,45,36,96,85,63,30.19,29.80,5,2,13,0.00
2013-2-10,67,57,42,62,40,27,96,61,22,30.05,29.69,11,1,21,1.17
2013-2-11,55,50,42,40,34,28,83,56,41,30.22,30.04,4,1,13,0.12
2013-2-12,47,46,40,45,43,38,95,90,77,30.09,29.91,4,1,10,0.35
2013-2-13,56,44,38,39,36,33,93,75,44,30.22,30.08,3,1,16,0.02
2013-2-14,68,50,34,41,37,32,95,66,28,30.17,30.04,3,0,8,0.00
2013-2-15,51,45,32,40,29,20,83,55,31,30.45,30.13,4,1,15,0.00
2013-2-16,55,41,27,32,28,23,87,62,35,30.48,30.24,3,0,6,0.00
2013-2-17,69,54,35,47,34,27,84,51,21,30.24,29.95,8,2,21,0.00
2013-2-18,75,60,50,57,46,32,81,61,31,30.16,29.78,9,3,22,0.00
2013-2-19,59,50,37,34,28,24,72,43,27,30.38,30.16,5,1,13,0.00
2013-2-20,51,43,39,40,37,33,89,79,49,30.23,29.85,7,3,18,0.16
2013-2-21,66,50,40,48,39,31,94,69,28,29.98,29.67,8,2,20,0.14
2013-2-22,48,39,30,37,28,22,83,66,48,30.22,29.97,2,0,9,0.14
2013-2-23,54,40,29,33,28,23,82,62,40,30.17,29.99,2,0,6,0.00
2013-2-24,68,52,32,45,37,29,91,61,33,30.00,29.65,6,2,13,0.00
2013-2-25,58,51,39,50,40,31,86,68,42,29.70,29.49,8,3,22,0.04
2013-2-26,57,45,38,36,33,32,83,65,41,29.96,29.70,4,1,19,0.04
2013-2-27,55,45,36,33,29,20,81,54,27,30.29,29.94,4,1,12,0.00
2013-2-28,57,45,34,31,28,22,81,53,29,30.36,30.23,3,1,14,0.00
2013-3-1,54,43,31,33,29,26,85,60,39,30.37,30.26,2,0,12,0.00
2013-3-2,54,40,30,31,26,20,78,59,34,30.51,30.30,2,1,10,0.00
2013-3-3,70,53,33,42,32,26,82,49,27,30.30,29.84,6,2,26,0.00
2013-3-4,86,68,55,50,44,33,65,46,15,29.84,29.60,7,4,22,0.00
2013-3-5,63,50,42,45,27,18,69,43,24,30.42,29.78,6,2,21,0.00
2013-3-6,61,47,35,27,22,15,62,40,19,30.52,30.25,3,0,8,0.00
2013-3-7,70,55,38,36,29,24,64,40,19,30.29,30.13,5,1,14,0.00
2013-3-8,63,58,53,56,50,35,90,76,41,30.22,30.02,3,1,18,0.02
2013-3-9,68,63,58,64,59,54,95,88,78,30.02,29.67,5,2,18,0.91
2013-3-10,58,50,38,57,40,31,96,71,54,30.14,29.72,4,1,17,1.31
2013-3-11,59,43,30,35,28,21,94,61,26,30.19,30.06,3,0,11,0.02
2013-3-12,66,50,35,34,30,25,83,50,25,30.36,30.09,4,1,10,0.00
2013-3-13,69,55,40,38,35,33,82,50,28,30.50,30.35,4,1,9,0.00
2013-3-14,77,62,47,48,41,33,65,48,34,30.39,30.19,9,2,18,0.00
2013-3-15,81,68,57,55,49,44,80,53,29,30.19,29.90,7,3,20,0.00
2013-3-16,80,70,58,59,54,47,82,59,46,29.90,29.69,7,3,22,0.00
2013-3-17,71,66,57,61,55,48,85,69,51,29.80,29.68,5,1,19,0.00
2013-3-18,69,61,56,61,48,38,91,63,44,30.04,29.65,4,1,12,0.00
2013-3-19,66,57,47,43,38,33,74,50,36,30.17,29.99,6,2,15,0.00
2013-3-20,67,57,46,37,33,26,67,42,23,30.35,30.07,3,1,8,0.00
2013-3-21,69,59,52,57,42,30,75,54,42,30.07,29.59,6,2,20,0.00
2013-3-22,65,53,45,60,48,42,92,85,69,29.90,29.59,4,1,13,0.00
2013-3-23,53,49,45,49,46,43,95,90,84,29.88,29.72,4,0,12,0.17
2013-3-24,52,45,38,47,30,20,94,59,37,30.24,29.87,7,3,21,0.02
2013-3-25,53,42,30,27,21,17,74,45,24,30.47,30.24,4,1,17,0.00
2013-3-26,56,43,29,28,22,18,80,47,28,30.58,30.36,2,0,7,0.00
2013-3-27,69,55,40,43,32,23,56,43,30,30.38,30.12,7,2,19,0.00
2013-3-28,70,61,51,57,51,43,84,69,55,30.26,30.11,5,1,13,0.00
2013-3-29,77,67,60,59,57,55,85,71,52,30.21,30.03,5,2,16,0.00
2013-3-30,77,66,55,64,58,-100,96,80,60,30.11,29.90,4,1,16,0.72
2013-3-31,74,65,56,62,57,50,93,76,50,30.00,29.81,4,1,13,0.09
2013-4-1,79,64,47,55,49,46,96,64,33,30.10,29.96,3,0,8,0.05
2013-4-2,69,65,50,63,57,44,91,77,57,30.05,29.91,7,1,16,0.03
2013-4-3,53,47,43,48,44,41,95,90,76,30.20,29.98,7,1,16,0.80
2013-4-4,51,45,41,42,41,39,95,86,70,30.27,30.16,3,0,10,0.54
2013-4-5,70,54,37,49,43,36,96,71,43,30.31,30.08,3,0,8,0.01
2013-4-6,75,65,56,59,52,44,79,64,47,30.07,29.85,7,2,18,0.01
2013-4-7,72,67,61,62,60,56,86,78,69,29.92,29.75,7,2,15,0.00
2013-4-8,75,70,65,65,62,58,84,76,70,29.78,29.67,7,3,20,0.00
2013-4-9,82,74,67,68,65,62,88,74,57,29.72,29.62,6,2,20,0.00
2013-4-10,74,53,41,67,49,38,92,86,66,29.93,29.70,3,2,13,0.03
2013-4-11,61,55,45,42,36,32,87,52,38,30.01,29.88,2,0,8,0.03
2013-4-12,78,58,40,48,43,38,96,63,26,30.06,29.90,2,0,8,0.00
2013-4-13,78,64,50,50,47,44,87,58,33,30.03,29.80,3,0,13,0.00
2013-4-14,82,70,58,65,58,49,83,67,54,29.80,29.55,5,1,15,0.00
2013-4-15,88,76,67,69,66,64,93,73,51,29.75,29.61,6,2,16,0.00
2013-4-16,87,76,71,69,66,63,84,71,51,29.90,29.75,5,2,21,0.00
2013-4-18,55,50,45,39,36,34,66,60,53,30.19,30.00,3,1,14,1.02
2013-4-19,63,50,38,41,32,28,82,55,27,30.34,30.18,3,0,11,0.06
2013-4-20,72,58,42,39,35,30,80,46,22,30.24,30.05,5,1,17,0.00
2013-4-21,71,60,48,51,46,36,81,62,46,30.24,30.09,3,0,11,0.00
2013-4-22,79,66,53,60,54,46,82,64,50,30.14,29.86,6,1,16,0.00
2013-4-23,69,55,41,62,50,38,91,84,68,30.23,29.81,3,1,16,0.03
2013-4-24,62,49,37,38,36,31,90,63,38,30.38,30.23,3,1,14,0.03
2013-4-25,74,61,48,46,40,33,62,46,27,30.39,30.17,4,1,12,0.01
2013-4-26,76,67,59,67,56,44,83,68,48,30.20,29.99,4,1,15,0.00
2013-4-27,74,68,59,66,60,55,89,77,58,30.14,29.99,5,1,13,0.00
2013-4-28,83,67,51,65,59,50,96,77,51,30.06,29.87,2,0,7,0.00
2013-4-29,87,75,64,66,61,57,89,65,38,29.91,29.78,3,1,14,0.00
2013-4-30,82,72,60,65,62,57,92,71,50,29.84,29.75,4,1,11,0.00
2013-5-1,83,73,65,69,64,61,90,74,52,29.96,29.79,4,1,11,0.00
2013-5-2,68,52,43,62,46,36,90,80,73,30.38,29.94,5,2,16,0.01
2013-5-3,66,52,38,39,33,27,85,54,24,30.36,30.07,4,1,15,0.01
2013-5-4,72,58,40,46,36,24,93,53,18,30.07,29.93,4,1,15,0.00
2013-5-5,68,57,45,48,43,38,78,61,46,30.20,30.06,2,0,11,0.00
2013-5-6,79,63,47,57,51,45,95,68,43,30.16,30.01,2,0,7,0.00
2013-5-7,85,71,55,56,54,51,90,57,33,30.09,29.93,4,0,9,0.00
2013-5-8,86,74,62,60,56,52,77,55,35,30.00,29.86,5,1,17,0.00
2013-5-9,75,69,66,67,63,58,95,84,58,29.97,29.85,3,1,14,0.24
2013-5-10,80,70,64,66,61,-100,96,77,52,30.06,29.89,2,0,7,0.04
2013-5-11,80,70,58,58,52,-100,88,58,29,30.19,30.04,4,1,11,0.00
2013-5-12,79,68,58,54,41,32,71,40,19,30.29,30.15,5,1,12,0.00
2013-5-13,87,72,55,54,48,41,68,44,28,30.25,30.11,5,2,14,0.00
2013-5-14,87,76,66,62,57,50,73,52,33,30.16,29.97,7,2,13,0.00
2013-5-15,77,71,62,69,66,60,94,83,63,30.03,29.74,5,2,16,1.71
2013-5-16,81,65,61,72,44,-100,95,86,72,29.84,29.75,5,1,16,1.68
2013-5-17,92,79,72,75,67,-100,95,77,54,29.85,29.77,5,1,16,0.01
2013-5-18,93,82,72,73,71,67,85,70,50,29.88,29.74,7,2,15,0.00
2013-5-19,89,81,71,71,68,65,85,67,55,29.82,29.65,8,3,22,0.00
2013-5-20,91,81,74,72,70,68,82,69,54,29.80,29.63,7,3,20,0.00
2013-5-21,81,72,60,72,66,59,96,83,68,29.87,29.66,7,2,16,0.90
2013-5-22,87,70,54,64,58,53,97,72,32,29.97,29.85,2,0,6,0.02
2013-5-23,87,78,70,73,70,62,93,78,63,30.06,29.88,5,1,12,0.01
2013-5-24,86,78,68,74,70,64,93,78,62,30.20,29.99,7,1,14,0.43
2013-5-25,85,72,67,72,68,65,95,88,62,30.18,30.04,6,0,19,1.21
2013-5-26,87,77,69,73,70,67,95,80,59,30.08,29.92,3,1,12,0.27
2013-5-27,86,79,72,71,69,67,85,72,58,29.98,29.78,6,2,17,0.01
2013-5-28,85,79,72,70,68,66,83,70,57,29.88,29.74,7,3,20,0.00
2013-5-29,83,76,71,74,70,68,92,82,71,29.82,29.68,6,2,18,0.09
2013-5-30,89,80,74,74,72,69,87,76,58,29.79,29.67,6,3,21,0.09
2013-5-31,90,82,77,74,73,71,84,73,57,29.82,29.65,6,3,17,0.00
2013-6-1,87,80,76,74,71,64,84,76,66,29.94,29.70,6,2,20,0.00
2013-6-2,83,75,66,65,57,50,79,56,32,30.08,29.94,3,0,10,0.00
2013-6-3,91,76,63,63,59,56,81,59,34,30.00,29.83,3,0,8,0.00
2013-6-4,92,81,71,72,67,62,78,64,49,30.00,29.77,5,1,14,0.00
2013-6-5,93,82,74,72,70,68,84,68,50,29.93,29.75,3,1,13,0.00
2013-6-6,81,73,68,72,68,65,94,82,69,29.95,29.80,3,0,12,0.41
2013-6-7,84,73,61,66,59,54,95,66,38,30.02,29.90,3,0,8,0.01
2013-6-8,88,76,61,64,61,58,93,63,42,29.95,29.79,3,1,10,0.00
2013-6-9,90,78,67,70,68,62,95,72,50,29.93,29.82,3,0,12,1.43
2013-6-10,98,83,68,73,67,60,93,63,30,29.96,29.88,5,1,13,0.12
2013-6-11,93,85,76,75,71,68,84,64,48,30.01,29.90,6,2,19,0.00
2013-6-12,94,85,77,74,72,69,86,66,47,30.04,29.91,5,2,14,0.00
2013-6-13,99,87,78,72,70,66,77,59,36,30.04,29.87,4,1,13,0.00
2013-6-14,96,87,77,73,71,69,81,60,44,29.97,29.86,3,0,7,0.00
2013-6-15,91,82,72,76,72,67,90,73,59,29.99,29.87,4,0,15,0.08
2013-6-16,95,85,74,76,72,68,92,66,45,30.00,29.85,3,1,9,0.08
2013-6-17,91,81,68,78,72,66,95,77,58,30.02,29.83,7,1,20,0.78
2013-6-18,86,77,70,74,70,66,92,80,58,30.01,29.88,3,0,8,0.23
2013-6-19,92,81,70,75,72,68,95,75,56,29.99,29.84,3,0,10,0.02
2013-6-20,95,83,76,73,71,69,87,70,45,30.03,29.91,5,1,16,0.00
2013-6-22,96,91,83,74,70,68,70,52,43,30.02,29.86,5,2,15,0.00
2013-6-23,95,86,77,73,70,66,81,60,42,29.97,29.86,6,1,15,0.00
2013-6-24,96,86,77,72,70,66,82,60,41,30.01,29.86,5,2,14,0.00
2013-6-25,97,87,78,74,69,64,80,57,39,29.97,29.80,6,2,19,0.00
2013-6-26,99,88,77,75,71,66,81,58,44,29.94,29.82,6,2,17,0.00
2013-6-27,102,89,80,75,71,68,75,57,37,29.99,29.83,4,1,12,0.00
2013-6-28,102,89,78,73,69,65,78,54,34,29.92,29.79,3,0,8,0.00
2013-6-29,97,86,75,72,66,60,86,54,31,29.89,29.78,3,0,8,0.00
2013-6-30,90,82,73,69,61,56,83,51,35,29.93,29.80,4,1,11,0.00
2013-7-1,86,78,69,63,59,57,72,54,39,30.03,29.93,3,0,12,0.00
2013-7-2,88,77,65,60,55,52,76,49,30,30.09,29.99,4,0,9,0.00
2013-7-3,91,79,63,64,56,49,92,50,25,30.06,29.93,3,0,12,0.00
2013-7-4,94,82,71,66,61,54,74,52,26,30.00,29.88,6,1,13,0.00
2013-7-5,96,84,71,68,63,60,75,51,32,30.00,29.84,4,1,12,0.00
2013-7-6,97,85,73,70,64,61,71,51,34,29.93,29.84,3,1,11,0.00
2013-7-7,97,86,74,73,68,64,76,56,39,29.99,29.89,4,1,12,0.01
2013-7-8,97,84,77,75,70,-100,84,66,43,30.07,29.96,3,1,14,0.01
2013-7-9,99,88,78,73,67,61,79,53,29,30.10,29.94,4,2,14,0.00
2013-7-10,103,90,82,74,67,-100,75,52,32,30.03,29.87,4,1,12,0.00
2013-7-11,102,86,77,78,72,67,90,66,37,29.94,29.86,6,1,13,0.22
2013-7-12,100,86,74,74,71,67,91,64,34,29.96,29.85,4,1,10,0.06
2013-7-13,101,87,79,72,68,61,74,55,36,29.98,29.85,5,1,13,0.00
2013-7-14,83,73,70,69,66,59,94,81,47,30.02,29.88,3,0,6,0.30
2013-7-15,73,70,67,71,68,65,95,93,88,30.10,29.96,2,0,7,0.46
2013-7-16,89,76,70,74,71,67,95,86,58,30.23,30.09,4,0,15,0.14
2013-7-17,89,79,70,76,71,67,96,80,56,30.23,30.13,4,0,15,0.49
2013-7-18,95,82,70,74,71,68,95,73,45,30.19,29.99,2,0,5,0.01
2013-7-19,92,79,74,76,72,69,90,81,50,30.03,29.92,3,0,10,0.01
2013-7-20,95,80,71,75,70,-100,92,74,45,29.98,29.83,3,0,11,0.11
2013-7-21,97,85,74,76,72,69,90,68,44,29.92,29.82,4,1,14,0.11
2013-7-22,97,87,78,76,73,69,86,65,43,29.96,29.83,5,2,13,0.00
2013-7-23,99,88,80,77,74,66,83,63,44,29.95,29.79,6,2,13,0.00
2013-7-24,97,83,74,73,70,67,83,66,41,30.05,29.83,5,1,16,0.00
2013-7-25,96,85,73,76,72,69,88,68,47,30.04,29.95,3,0,7,0.00
2013-7-26,94,84,76,77,73,71,93,72,53,30.01,29.83,5,1,14,0.20
2013-7-27,91,80,73,72,67,62,85,66,42,30.01,29.89,3,1,12,0.03
2013-7-28,93,81,68,72,68,65,92,67,44,29.99,29.85,4,1,10,0.00
2013-7-29,96,86,77,76,72,64,87,66,40,29.98,29.88,5,1,13,0.00
2013-7-30,98,88,78,74,70,64,79,58,43,30.07,29.91,6,2,14,0.00
2013-7-31,103,90,81,75,70,65,69,53,37,30.04,29.88,4,1,9,0.00
2013-8-1,104,92,81,77,73,70,84,58,34,29.98,29.85,4,1,10,0.00
2013-8-2,102,90,79,73,70,66,77,53,34,29.92,29.83,3,1,12,0.00
2013-8-3,101,90,81,72,69,66,69,51,33,29.98,29.88,3,1,11,0.00
2013-8-4,101,90,81,74,70,67,74,55,35,30.04,29.89,3,1,10,0.00
2013-8-5,103,90,82,72,69,63,70,52,33,29.98,29.80,4,1,10,0.00
2013-8-6,103,91,81,72,68,64,72,49,31,29.88,29.75,5,2,12,0.00
2013-8-7,105,92,82,72,69,66,69,49,31,29.87,29.72,5,2,15,0.00
2013-8-8,101,91,80,74,70,64,77,52,34,29.86,29.73,5,1,12,0.00
2013-8-9,103,88,81,72,68,63,69,53,29,29.92,29.79,4,0,8,0.00
2013-8-10,99,87,76,76,72,67,89,63,40,30.04,29.92,3,0,10,0.00
2013-8-11,103,88,76,73,71,67,82,60,32,30.06,29.92,3,0,9,0.00
2013-8-21,95,84,73,70,67,63,81,58,41,30.08,29.96,4,0,10,0.00
2013-8-22,99,88,76,73,69,66,82,57,35,30.07,29.90,2,0,8,0.00
2013-8-23,100,88,77,75,70,67,80,57,36,30.01,29.87,3,0,8,0.00
2013-8-24,99,87,78,73,66,-100,75,54,36,30.04,29.93,2,0,11,0.00
2013-8-25,97,88,76,72,69,66,79,55,38,30.13,30.02,4,1,10,0.00
2013-8-26,96,85,76,72,68,62,80,58,36,30.15,30.03,4,1,10,0.00
2013-8-27,91,80,74,73,71,70,87,75,51,30.11,30.04,3,0,9,0.00
2013-10-14,71,69,68,70,68,66,96,95,90,30.15,29.93,2,0,10,0.93
2013-10-15,75,66,53,71,64,52,95,92,81,30.09,29.91,4,1,11,0.55
2013-10-16,63,56,52,53,50,48,96,84,60,30.14,30.04,2,0,9,0.34
2013-10-17,73,57,44,52,47,42,94,72,38,30.18,30.02,1,0,4,0.02
2013-10-18,68,59,49,57,52,47,95,80,58,30.09,29.93,1,0,8,0.04
2013-10-19,67,50,41,45,38,-100,91,71,38,30.26,30.11,3,1,13,0.01
2013-10-20,71,56,40,47,44,39,96,67,37,30.12,29.91,3,0,13,0.00
2013-10-21,72,59,52,61,52,47,88,79,67,30.14,29.95,3,0,10,0.00
2013-10-22,76,60,42,49,45,40,94,62,35,30.21,30.05,3,0,9,0.00
2013-10-23,83,63,46,53,49,44,96,67,30,30.16,30.05,1,0,6,0.00
2013-10-24,78,66,50,56,50,44,88,59,43,30.29,30.08,2,1,8,0.00
2013-12-30,43,32,26,25,22,17,91,66,43,30.50,30.34,1,0,8,0.00
2013-12-31,53,38,23,29,26,21,93,66,36,30.53,30.28,2,0,7,0.00
2014-1-1,68,48,34,49,37,29,84,67,49,30.27,29.93,7,2,20,0.00
2014-1-2,43,31,23,23,20,16,89,64,41,30.56,30.31,4,1,22,0.00